This is the latest recevied weather packets stored in our database for station/object NZ3C. If no packets are shown the sender has not sent any weather packets the latest 10 day(s).
| Time | Temp. | Humidity | Pressure | Rain* | Wind** | Luminosity | Snow |
|---|---|---|---|---|---|---|---|
| 1777511986 | 20° C | 82% | 1009.8 hPa | 0 mm | - | 0 W/m² | - |
| 1777511685 | 20° C | 82% | 1009.7 hPa | 0 mm | - | 0 W/m² | - |
| 1777511382 | 20° C | 82% | 1009.8 hPa | 0 mm | - | 0 W/m² | - |
| 1777511078 | 19.44° C | 83% | 1009.9 hPa | 0 mm | - | 0 W/m² | - |
| 1777510774 | 19.44° C | 84% | 1009.7 hPa | 0 mm | - | 0 W/m² | - |
| 1777510471 | 19.44° C | 84% | 1009.5 hPa | 0 mm | - | 0 W/m² | - |
| 1777510167 | 20° C | 83% | 1009.6 hPa | 0 mm | - | 0 W/m² | - |
| 1777509865 | 20° C | 82% | 1009.6 hPa | 0 mm | - | 0 W/m² | - |
| 1777509564 | 20° C | 82% | 1009.4 hPa | 0 mm | - | 0 W/m² | - |
| 1777509262 | 20° C | 81% | 1009.3 hPa | 0 mm | - | 0 W/m² | - |
| 1777508959 | 20.56° C | 80% | 1009.2 hPa | 0 mm | - | 0 W/m² | - |
| 1777508656 | 20.56° C | 79% | 1009.4 hPa | 0 mm | - | 0 W/m² | - |
| 1777508353 | 20.56° C | 79% | 1009.3 hPa | 0 mm | - | 0 W/m² | - |
| 1777508050 | 21.11° C | 78% | 1009.1 hPa | 0 mm | - | 0 W/m² | - |
| 1777507747 | 21.11° C | 77% | 1009.2 hPa | 0 mm | - | 0 W/m² | - |
| 1777507444 | 21.11° C | 76% | 1008.9 hPa | 0 mm | - | 1 W/m² | - |
| 1777507141 | 21.11° C | 77% | 1009.1 hPa | 0 mm | - | 2 W/m² | - |
| 1777506839 | 21.11° C | 78% | 1009.2 hPa | 0 mm | - | 3 W/m² | - |
| 1777506535 | 21.11° C | 78% | 1009.1 hPa | 0 mm | - | 6 W/m² | - |
| 1777506230 | 21.11° C | 78% | 1009.1 hPa | 0 mm | - | 8 W/m² | - |
| 1777505927 | 21.67° C | 78% | 1009.1 hPa | 0 mm | - | 13 W/m² | - |
| 1777505623 | 22.22° C | 75% | 1009.1 hPa | 0 mm | - | 14 W/m² | - |
| 1777505320 | 22.78° C | 72% | 1009.3 hPa | 0 mm | - | 12 W/m² | - |
| 1777505017 | 22.78° C | 69% | 1009.2 hPa | 0 mm | - | 13 W/m² | - |
| 1777504714 | 23.33° C | 68% | 1009.3 hPa | 0 mm | - | 15 W/m² | - |
* Rain latest hour (hover to see other rain measurements)
** Current wind speed in m/s (hover to see current wind gust speed)